SERVIS 1

Satellite information

Favourite Embed

Satellite Type and Status

PAYLOADIN ORBIT

Key statistics

Satellite SERVIS 1 at a glance.

Uptime

7920

Days in orbit

Revolutions

≈ 13.7

Per day

Orbit

SSO

Sun Synchronous Orbit

Inclination

99.5

Latest

Satellite identification and parameters

Extended collection of information and parameters for SERVIS 1.

Object identification

Identified? True

Debris? False

Object name: SERVIS 1

International designator: 2003-050A

Object number (NORAD): 28060

Object ID (CCSDS): 28060

Country: JAPAN (JPN)

Current information (Y/N): Y

RCS size: LARGE

Orbital parameters

Period: 104.947 minutes

Inclination: 99.4879 deg

SMA: 7370.104 km

Apoapsis: 1007.095 km

Periapsis: 976.844 km

RAAN: 183.6356 deg

Eccentricy: 0.0020523

Argument of periapsis: 265.4656 deg

Mean anomaly: 203.3699 deg

Mean motion: 13.72120677 rev/day

Mean motion (dot): 0.00000027 rev/day2

B* drag term: 0.000078961 1/REarth

Two-line elements (TLE)

Creation date: July 5, 2025, 5:45 p.m.

Reference frame: TEME

Reference center: EARTH

Epoch: July 5, 2025, 2:06 p.m. UTC

TLE line 0: 0 SERVIS 1

TLE line 1: 1 28060U 03050A 25186.58771338 .00000027 00000-0 78961-4 0 9992

TLE line 2: 2 28060 99.4879 183.6356 0020523 265.4656 203.3699 13.72120677 85429

Live tracking on map

Real-time ground track for satellite SERVIS 1.

In-orbit conjunctions

A list of the most updated potential collisions computed for object SERVIS 1.

Target Orbit TCA Probability of collision Miss distance Type
COSMOS 1275 DEB LEO 2024-10-27 14:13:37 0.0001669095 479.0 (m) DEBRIS
SL-8 R/B LEO 2024-08-05 13:06:41 0.01846261 19.0 (m) ROCKET BODY

Associated space launch

SERVIS-1, or Space Environment Reliability Verification Integrated System 1, is a Japanese satellite designed for testing the performance of commercial off-the-shelf products in the space environment.

SERVIS 1 was lifted into orbit during the mission ‘Rokot / Briz-KM | SERVIS-1’, on board a Rokot/Briz-KM space rocket.

The launch took place on Oct. 30, 2003, 1:43 p.m. from 133/3 (133L).

For more information about the launch, click the button.

Launch to space Rokot / Briz-KM | SERVIS-1
Rokot / Briz-KM | SERVIS-1

Agency: N/A

Status: Launch Successful

Launch date: Oct. 30, 2003, 1:43 p.m. UTC

Rocket: Rokot/Briz-KM

Launch pad: 133/3 (133L)

Location: Plesetsk Cosmodrome, Russian Federation

...

Latest news about this satellite

There are no fresh news available about this satellite. Check back as we update our databases every day.


Newsletter sign-up

Weekly statistics, charts and insights to help you stay on top of the space industry.